| time (UTC) | temp F | wind direction | speed MPH | gust MPH | rain 1hr in | rain 24hr in | rain mn in | humidity % | barometer mb |
| 20260509074529 | 29 | 234 | 0.0 | 0.0 | 0.00 | 0.00 | 0.00 | 74 | 1014.8 |
| 20260509073028 | 29 | 234 | 0.0 | 0.0 | 0.00 | 0.00 | 0.00 | 73 | 1014.8 |
| 20260509071528 | 29 | 234 | 0.0 | 0.0 | 0.00 | 0.00 | 0.00 | 72 | 1014.9 |
| 20260509070025 | 29 | 234 | 0.0 | 0.0 | 0.00 | 0.00 | 0.00 | 68 | 1015.0 |
| 20260509064529 | 30 | 234 | 0.0 | 0.0 | 0.00 | 0.00 | 0.00 | 69 | 1014.9 |
| 20260509063021 | 30 | 234 | 0.0 | 0.0 | 0.00 | 0.00 | 0.00 | 68 | 1014.8 |
| 20260509061534 | 31 | 234 | 0.0 | 0.0 | 0.00 | 0.00 | 0.00 | 68 | 1014.9 |
| 20260509060019 | 31 | 234 | 0.0 | 0.0 | 0.00 | 0.00 | 0.00 | 67 | 1015.0 |
| 20260509054516 | 31 | 234 | 0.0 | 0.0 | 0.00 | 0.00 | 0.00 | 67 | 1015.0 |
| 20260509053027 | 32 | 234 | 0.0 | 0.0 | 0.00 | 0.00 | 0.00 | 67 | 1014.8 |
| 20260509051512 | 32 | 234 | 0.0 | 0.0 | 0.00 | 0.00 | 0.00 | 67 | 1014.8 |
| 20260509050010 | 33 | 234 | 0.0 | 0.0 | 0.00 | 0.00 | 0.00 | 66 | 1014.6 |
| 20260509044507 | 33 | 234 | 0.0 | 0.0 | 0.00 | 0.00 | 0.00 | 66 | 1014.5 |
| 20260509043005 | 34 | 234 | 0.0 | 0.0 | 0.00 | 0.00 | 0.00 | 66 | 1014.5 |
| 20260509041503 | 34 | 234 | 0.0 | 0.0 | 0.00 | 0.00 | 0.00 | 66 | 1014.5 |
| 20260509040100 | 35 | 234 | 0.0 | 0.0 | 0.00 | 0.00 | 0.00 | 66 | 1014.4 |
| 20260509034603 | 35 | 234 | 0.0 | 0.0 | 0.00 | 0.00 | 0.00 | 65 | 1014.2 |
| 20260509033056 | 36 | 234 | 0.0 | 0.0 | 0.00 | 0.00 | 0.00 | 64 | 1014.1 |
| 20260509031555 | 37 | 234 | 0.0 | 0.0 | 0.00 | 0.00 | 0.00 | 64 | 1013.9 |
| 20260509030057 | 37 | 234 | 0.0 | 0.0 | 0.00 | 0.00 | 0.00 | 63 | 1013.7 |
| 20260509024553 | 38 | 234 | 0.0 | 0.0 | 0.00 | 0.00 | 0.00 | 61 | 1013.7 |
| 20260509023052 | 39 | 234 | 0.0 | 0.0 | 0.00 | 0.00 | 0.00 | 59 | 1013.6 |
| 20260509021551 | 40 | 234 | 0.0 | 0.0 | 0.00 | 0.00 | 0.00 | 57 | 1013.4 |
| 20260509020049 | 42 | 234 | 0.0 | 0.0 | 0.00 | 0.00 | 0.00 | 55 | 1013.2 |
| 20260509014550 | 43 | 234 | 0.0 | 0.0 | 0.00 | 0.00 | 0.00 | 54 | 1013.2 |
| 20260509013047 | 44 | 234 | 0.0 | 0.0 | 0.00 | 0.00 | 0.00 | 51 | 1013.0 |
| 20260509011545 | 45 | 234 | 0.0 | 0.0 | 0.00 | 0.00 | 0.00 | 49 | 1012.7 |
| 20260509010046 | 46 | 234 | 0.0 | 0.0 | 0.00 | 0.00 | 0.00 | 46 | 1012.5 |
| 20260509004542 | 47 | 234 | 0.0 | 0.0 | 0.00 | 0.00 | 0.00 | 44 | 1012.3 |
| 20260509003042 | 48 | 234 | 0.0 | 0.0 | 0.00 | 0.00 | 0.00 | 48 | 1011.9 |
| 20260509001540 | 49 | 234 | 0.0 | 0.0 | 0.00 | 0.00 | 0.00 | 47 | 1011.8 |
| 20260509000038 | 50 | 234 | 0.0 | 0.0 | 0.00 | 0.00 | 0.00 | 40 | 1011.6 |
| 20260508234536 | 50 | 234 | 0.0 | 0.0 | 0.00 | 0.00 | 0.00 | 38 | 1011.3 |
| 20260508233035 | 51 | 234 | 0.0 | 1.0 | 0.00 | 0.00 | 0.00 | 32 | 1011.1 |
| 20260508231537 | 51 | 182 | 0.0 | 2.0 | 0.00 | 0.00 | 0.00 | 29 | 1011.0 |
| 20260508230040 | 52 | 182 | 0.0 | 3.0 | 0.00 | 0.00 | 0.00 | 30 | 1011.0 |
| 20260508224534 | 53 | 14 | 0.0 | 4.0 | 0.00 | 0.00 | 0.00 | 30 | 1010.8 |
| 20260508223040 | 54 | 18 | 0.0 | 2.0 | 0.00 | 0.00 | 0.00 | 29 | 1010.8 |
| 20260508221535 | 55 | 248 | 0.0 | 4.0 | 0.00 | 0.00 | 0.00 | 24 | 1010.7 |
| 20260508220037 | 55 | 304 | 0.0 | 5.0 | 0.00 | 0.00 | 0.00 | 24 | 1010.5 |
| 20260508214529 | 55 | 301 | 1.0 | 6.0 | 0.00 | 0.00 | 0.00 | 23 | 1010.5 |
| 20260508213028 | 55 | 350 | 1.0 | 5.0 | 0.00 | 0.00 | 0.00 | 25 | 1010.6 |
| 20260508211530 | 55 | 25 | 2.0 | 6.0 | 0.00 | 0.00 | 0.00 | 23 | 1010.4 |
| 20260508210026 | 54 | 234 | 2.0 | 11.0 | 0.00 | 0.00 | 0.00 | 24 | 1010.5 |
| 20260508204525 | 54 | 37 | 1.0 | 4.0 | 0.00 | 0.00 | 0.00 | 28 | 1010.3 |
| 20260508203027 | 54 | 5 | 2.0 | 6.0 | 0.00 | 0.00 | 0.00 | 27 | 1010.3 |
| 20260508201523 | 54 | 264 | 1.0 | 7.0 | 0.00 | 0.00 | 0.00 | 28 | 1010.3 |
| 20260508200028 | 53 | 283 | 0.0 | 3.0 | 0.00 | 0.00 | 0.00 | 29 | 1010.4 |
| 20260508194522 | 53 | 162 | 1.0 | 4.0 | 0.00 | 0.00 | 0.00 | 28 | 1010.4 |
| 20260508193024 | 53 | 15 | 0.0 | 6.0 | 0.00 | 0.00 | 0.00 | 30 | 1010.4 |
| 20260508191534 | 53 | 251 | 1.0 | 6.0 | 0.00 | 0.00 | 0.00 | 30 | 1010.5 |
| 20260508190028 | 54 | 194 | 2.0 | 9.0 | 0.00 | 0.00 | 0.00 | 25 | 1010.4 |
| 20260508184522 | 53 | 131 | 3.0 | 8.0 | 0.00 | 0.00 | 0.00 | 30 | 1010.5 |
| 20260508183016 | 52 | 221 | 1.0 | 6.0 | 0.00 | 0.00 | 0.00 | 30 | 1010.7 |
| 20260508181514 | 52 | 118 | 1.0 | 4.0 | 0.00 | 0.00 | 0.00 | 31 | 1010.7 |
| 20260508180015 | 52 | 355 | 1.0 | 5.0 | 0.00 | 0.00 | 0.00 | 32 | 1010.7 |
| 20260508174514 | 52 | 205 | 1.0 | 6.0 | 0.00 | 0.00 | 0.00 | 32 | 1010.8 |
| 20260508173013 | 52 | 173 | 0.0 | 5.0 | 0.00 | 0.00 | 0.00 | 36 | 1010.9 |
| 20260508171513 | 51 | 22 | 1.0 | 8.0 | 0.00 | 0.00 | 0.00 | 34 | 1010.9 |
| 20260508170014 | 51 | 212 | 1.0 | 7.0 | 0.00 | 0.00 | 0.00 | 33 | 1011.1 |
| 20260508164516 | 51 | 190 | 1.0 | 4.0 | 0.00 | 0.00 | 0.00 | 33 | 1011.2 |
| 20260508163010 | 50 | 9 | 1.0 | 6.0 | 0.00 | 0.00 | 0.00 | 35 | 1011.2 |
| 20260508161510 | 51 | 291 | 3.0 | 8.0 | 0.00 | 0.00 | 0.00 | 34 | 1011.1 |
| 20260508160014 | 51 | 331 | 3.0 | 8.0 | 0.00 | 0.00 | 0.00 | 34 | 1010.9 |
| 20260508154509 | 52 | 284 | 1.0 | 8.0 | 0.00 | 0.00 | 0.00 | 31 | 1010.7 |
| 20260508153009 | 52 | 242 | 1.0 | 6.0 | 0.00 | 0.00 | 0.00 | 30 | 1010.6 |
| 20260508151609 | 52 | 296 | 1.0 | 8.0 | 0.00 | 0.00 | 0.00 | 31 | 1010.5 |
| 20260508150018 | 53 | 101 | 1.0 | 6.0 | 0.00 | 0.00 | 0.00 | 32 | 1010.6 |
| 20260508144506 | 52 | 307 | 1.0 | 6.0 | 0.00 | 0.00 | 0.00 | 28 | 1010.5 |
| 20260508143004 | 52 | 213 | 1.0 | 10.0 | 0.00 | 0.00 | 0.00 | 30 | 1010.4 |
| 20260508141505 | 53 | 350 | 3.0 | 9.0 | 0.00 | 0.00 | 0.00 | 29 | 1010.3 |
| 20260508140109 | 52 | 240 | 4.0 | 10.0 | 0.00 | 0.00 | 0.00 | 27 | 1010.6 |
| 20260508134606 | 53 | 31 | 3.0 | 8.0 | 0.00 | 0.00 | 0.00 | 28 | 1010.6 |
| 20260508133058 | 52 | 293 | 3.0 | 9.0 | 0.00 | 0.00 | 0.00 | 29 | 1010.6 |
| 20260508131553 | 50 | 300 | 2.0 | 6.0 | 0.00 | 0.00 | 0.00 | 35 | 1010.6 |
| 20260508130048 | 49 | 224 | 2.0 | 5.0 | 0.00 | 0.00 | 0.00 | 43 | 1010.8 |
| 20260508124543 | 46 | 28 | 1.0 | 3.0 | 0.00 | 0.00 | 0.00 | 49 | 1010.8 |
| 20260508123040 | 43 | 342 | 1.0 | 2.0 | 0.00 | 0.00 | 0.00 | 57 | 1010.9 |
| 20260508121541 | 41 | 13 | 0.0 | 0.0 | 0.00 | 0.00 | 0.00 | 61 | 1011.0 |
| 20260508120040 | 40 | 13 | 0.0 | 0.0 | 0.00 | 0.00 | 0.00 | 62 | 1010.9 |
| 20260508114529 | 39 | 13 | 0.0 | 2.0 | 0.00 | 0.00 | 0.00 | 65 | 1011.1 |
| 20260508113029 | 35 | 10 | 0.0 | 0.0 | 0.00 | 0.00 | 0.00 | 76 | 1011.0 |
| 20260508111528 | 32 | 10 | 0.0 | 0.0 | 0.00 | 0.00 | 0.00 | 79 | 1010.9 |
| 20260508110020 | 31 | 10 | 0.0 | 1.0 | 0.00 | 0.00 | 0.00 | 79 | 1010.8 |
| 20260508104517 | 30 | 10 | 0.0 | 0.0 | 0.00 | 0.00 | 0.00 | 78 | 1010.8 |
| 20260508103022 | 29 | 10 | 0.0 | 0.0 | 0.00 | 0.00 | 0.00 | 77 | 1010.5 |
| 20260508101513 | 29 | 10 | 0.0 | 0.0 | 0.00 | 0.00 | 0.00 | 77 | 1010.5 |
| 20260508100011 | 29 | 10 | 0.0 | 0.0 | 0.00 | 0.00 | 0.00 | 77 | 1010.4 |
| 20260508094508 | 29 | 10 | 0.0 | 0.0 | 0.00 | 0.00 | 0.00 | 77 | 1010.3 |
| 20260508093007 | 29 | 10 | 0.0 | 0.0 | 0.00 | 0.00 | 0.00 | 77 | 1010.1 |
| 20260508091506 | 29 | 10 | 0.0 | 0.0 | 0.00 | 0.00 | 0.00 | 75 | 1010.1 |
| 20260508090005 | 29 | 10 | 0.0 | 0.0 | 0.00 | 0.00 | 0.00 | 74 | 1010.1 |
| 20260508084504 | 29 | 10 | 0.0 | 0.0 | 0.00 | 0.00 | 0.00 | 73 | 1010.1 |
| 20260508083002 | 29 | 10 | 0.0 | 0.0 | 0.00 | 0.00 | 0.00 | 72 | 1010.1 |
| 20260508081501 | 29 | 10 | 0.0 | 0.0 | 0.00 | 0.00 | 0.00 | 72 | 1009.9 |
| 20260508080104 | 29 | 10 | 0.0 | 0.0 | 0.00 | 0.00 | 0.00 | 71 | 1009.6 |